Location: Sternwarte Stuttgart
(48.7824°N, 9.1965°E)
Time: 15:19:48
(UTC+00:00)

ISS - Visible Passes

Search period start: 20 March 2019 00:00
Search period end: 30 March 2019 00:00
Orbit: 406 x 411 km, 51.6° (Epoch: 21 March)

Date Brightness Start Highest point End Pass type
(mag) Time Alt. Az. Time Alt. Az. Time Alt. Az.
21 Mar -1.8 19:27:44 10° SSW 19:28:53 18° SSW 19:28:53 18° SSW visible
22 Mar -2.2 18:37:22 10° S 18:39:48 19° SE 18:40:46 17° ESE visible
22 Mar -1.2 20:12:43 10° WSW 20:13:32 17° WSW 20:13:32 17° WSW visible
23 Mar -3.8 19:21:45 10° SW 19:25:00 58° SSE 19:25:12 57° SE visible
24 Mar -3.2 18:30:56 10° SW 18:34:02 37° SSE 18:36:40 13° E visible
24 Mar -2.4 20:07:13 10° W 20:09:25 37° W 20:09:25 37° W visible
25 Mar -3.8 19:16:05 10° WSW 19:19:24 82° NNW 19:20:44 33° ENE visible
25 Mar -0.6 20:52:57 10° WNW 20:53:29 14° WNW 20:53:29 14° WNW visible
26 Mar -3.8 18:25:02 10° WSW 18:28:19 72° SSE 18:31:38 10° ENE visible
26 Mar -2.9 20:01:47 10° W 20:04:39 47° NNW 20:04:39 47° NNW visible
27 Mar -3.3 19:10:35 10° W 19:13:51 57° N 19:15:43 22° ENE visible
27 Mar -1.0 20:47:26 10° WNW 20:48:28 18° WNW 20:48:28 18° WNW visible
28 Mar -3.6 18:19:23 10° WSW 18:22:41 71° NNW 18:25:59 10° ENE visible
28 Mar -3.1 19:56:16 10° WNW 19:59:27 49° N 19:59:27 49° N visible
29 Mar -3.1 19:05:04 10° W 19:08:18 49° N 19:10:25 19° ENE visible
29 Mar -1.4 20:41:47 10° WNW 20:43:08 22° WNW 20:43:08 22° WNW visible
